Flippin, AR

8:47 PM CST on February 24, 2018 (GMT -0600)
Marion County Regional

Weather History for KFLP - January, 1999

Change the Weather History Date:

Thursday, January 28, 1999

  Actual Average Record
Temperature  
Mean Temperature 52 °F -  
Max Temperature 60 °F 46 °F 77 °F (2002)
Min Temperature 44 °F 27 °F 8 °F (1997)
Degree Days  
Heating Degree Days 13    
Growing Degree Days 2 (Base 50)    
Moisture  
Dew Point 46 °F    
Average Humidity 80    
Maximum Humidity 93    
Minimum Humidity 71    
Precipitation  
Precipitation 0.03 in - - ()
Sea Level Pressure  
Sea Level Pressure 30.13 in    
Wind  
Wind Speed 4 mph (NNW)    
Max Wind Speed 10 mph    
Max Gust Speed 16 mph    
Visibility 8 miles    
Events      
Averages and records for this station are not official NWS values.
T = Trace of Precipitation, MM = Missing Value Source: NWS Daily Summary

Daily Weather History Graph

Daily Weather History Graph

Search for Another Location

Airport or City:

Trip Planner

Search our weather history database for the weather conditions in past years. The results will help you decide how hot, cold, wet, or windy it might be!

Date:

Astronomy

Jan. 28, 1999 Rise Set
Actual Time 7:14 AM CST 5:32 PM CST
Civil Twilight 6:47 AM CST 5:59 PM CST
Nautical Twilight 6:16 AM CST 6:30 PM CST
Astronomical Twilight 5:46 AM CST 7:00 PM CST
Moon 2:50 PM CST (1/28) 4:23 AM CST (1/28)
Length of Visible Light 11h 12m
Length of Day
10h 17m
Waxing Gibbous, 89% of the Moon is Illuminated
Jan 28
Waxing Gibbous
Jan 31
Full
Feb 8
Last Quarter
Feb 16
New
Feb 22
First Quarter

Hourly Weather History & Observations

Time (CST) Temp. Windchill Dew Point Humidity Pressure Visibility Wind Dir Wind Speed Gust Speed Precip Events Conditions
12:15 AM 59.0 °F - 50.0 °F 72% 30.06 in 10.0 mi SSW 3.5 mph - N/A   Overcast
12:35 AM 57.2 °F - 50.0 °F 77% 30.06 in 10.0 mi SSW 3.5 mph - N/A   Overcast
12:55 AM 57.2 °F - 50.0 °F 77% 30.06 in 10.0 mi SSW 3.5 mph - N/A   Overcast
1:15 AM 57.2 °F - 50.0 °F 77% 30.05 in 10.0 mi SSW 3.5 mph - N/A   Overcast
1:35 AM 59.0 °F - 50.0 °F 72% 30.06 in 10.0 mi SW 3.5 mph - N/A   Overcast
1:55 AM 59.0 °F - 50.0 °F 72% 30.06 in 10.0 mi SW 4.6 mph - N/A   Mostly Cloudy
2:15 AM 57.2 °F - 50.0 °F 77% 30.06 in 10.0 mi SSW 3.5 mph - N/A   Mostly Cloudy
2:35 AM 57.2 °F - 50.0 °F 77% 30.06 in 10.0 mi South 3.5 mph - N/A   Mostly Cloudy
2:55 AM 57.2 °F - 50.0 °F 77% 30.05 in 10.0 mi SSW 4.6 mph - N/A   Overcast
3:15 AM 59.0 °F - 50.0 °F 72% 30.05 in 10.0 mi SSW 4.6 mph - N/A   Overcast
3:35 AM 59.0 °F - 50.0 °F 72% 30.06 in 10.0 mi SW 5.8 mph - N/A   Mostly Cloudy
3:55 AM 57.2 °F - 50.0 °F 77% 30.05 in 10.0 mi SSW 3.5 mph - N/A   Mostly Cloudy
4:15 AM 59.0 °F - 50.0 °F 72% 30.05 in 10.0 mi SW 3.5 mph - N/A   Mostly Cloudy
4:35 AM 59.0 °F - 50.0 °F 72% 30.05 in 10.0 mi SSW 5.8 mph - N/A   Mostly Cloudy
4:55 AM 57.2 °F - 50.0 °F 77% 30.05 in 10.0 mi SSW 3.5 mph - N/A   Scattered Clouds
5:15 AM 57.2 °F - 50.0 °F 77% 30.06 in 10.0 mi North 6.9 mph - N/A   Mostly Cloudy
5:35 AM 60.8 °F - 51.8 °F 72% 30.07 in 10.0 mi North 6.9 mph - N/A   Mostly Cloudy
5:55 AM 59.0 °F - 51.8 °F 77% 30.07 in 10.0 mi North 5.8 mph - N/A   Mostly Cloudy
6:15 AM 59.0 °F - 51.8 °F 77% 30.08 in 10.0 mi Calm Calm - N/A   Mostly Cloudy
6:35 AM 57.2 °F - 51.8 °F 82% 30.08 in 10.0 mi Calm Calm - N/A   Mostly Cloudy
6:55 AM 55.4 °F - 51.8 °F 88% 30.10 in 10.0 mi Calm Calm - N/A   Mostly Cloudy
7:15 AM 57.2 °F - 51.8 °F 82% 30.10 in 10.0 mi Calm Calm - N/A   Overcast
7:35 AM 57.2 °F - 50.0 °F 77% 30.11 in 10.0 mi North 8.1 mph - N/A   Overcast
7:55 AM 55.4 °F - 48.2 °F 77% 30.12 in 10.0 mi NNW 9.2 mph - N/A   Mostly Cloudy
8:15 AM 53.6 °F - 46.4 °F 77% 30.13 in 10.0 mi North 6.9 mph - N/A   Overcast
8:35 AM 53.6 °F - 44.6 °F 72% 30.15 in 10.0 mi NNW 8.1 mph - N/A   Overcast
8:55 AM 51.8 °F - 42.8 °F 71% 30.16 in 10.0 mi North 10.4 mph 16.1 mph N/A   Overcast
9:15 AM 50.0 °F - 42.8 °F 76% 30.16 in 10.0 mi North 9.2 mph - N/A   Overcast
9:35 AM 48.2 °F - 42.8 °F 82% 30.17 in 7.0 mi NNW 6.9 mph - N/A   Overcast
9:55 AM 48.2 °F - 42.8 °F 82% 30.17 in 7.0 mi North 10.4 mph - N/A   Overcast
10:15 AM 48.2 °F - 42.8 °F 82% 30.18 in 5.0 mi NNW 4.6 mph - N/A   Overcast
10:35 AM 48.2 °F - 42.8 °F 82% 30.19 in 6.0 mi North 8.1 mph - N/A   Mostly Cloudy
10:55 AM 48.2 °F - 42.8 °F 82% 30.19 in 5.0 mi NNW 6.9 mph - N/A   Overcast
11:15 AM 48.2 °F - 42.8 °F 82% 30.20 in 5.0 mi NNW 6.9 mph - N/A   Overcast
11:35 AM 46.4 °F 44.3 °F 42.8 °F 87% 30.19 in 5.0 mi NW 4.6 mph - N/A   Mostly Cloudy
11:55 AM 46.4 °F - 42.8 °F 87% 30.19 in 5.0 mi Calm Calm - N/A   Mostly Cloudy
12:15 PM 48.2 °F - 42.8 °F 82% 30.19 in 5.0 mi NNE 3.5 mph - N/A   Mostly Cloudy
12:35 PM 48.2 °F - 42.8 °F 82% 30.19 in 5.0 mi Calm Calm - N/A   Mostly Cloudy
12:55 PM 48.2 °F - 42.8 °F 82% 30.18 in 5.0 mi NNW 4.6 mph - N/A   Mostly Cloudy
1:15 PM 48.2 °F - 42.8 °F 82% 30.18 in 5.0 mi NNW 3.5 mph - N/A   Mostly Cloudy
1:35 PM 48.2 °F - 42.8 °F 82% 30.18 in 5.0 mi NNW 5.8 mph - N/A   Mostly Cloudy
1:55 PM 48.2 °F - 42.8 °F 82% 30.16 in 7.0 mi NNW 5.8 mph - N/A   Overcast
2:15 PM 48.2 °F - 42.8 °F 82% 30.16 in 8.0 mi North 4.6 mph - N/A   Mostly Cloudy
2:35 PM 48.2 °F - 42.8 °F 82% 30.16 in 8.0 mi North 6.9 mph - N/A   Mostly Cloudy
2:55 PM 48.2 °F - 42.8 °F 82% 30.16 in 8.0 mi North 5.8 mph - N/A   Overcast
3:15 PM 48.2 °F - 42.8 °F 82% 30.17 in 9.0 mi North 4.6 mph - N/A   Overcast
3:55 PM 48.2 °F - 42.8 °F 82% 30.18 in 10.0 mi North 6.9 mph - N/A   Mostly Cloudy
4:15 PM 48.2 °F - 41.0 °F 76% 30.17 in 10.0 mi North 8.1 mph - N/A   Overcast
4:35 PM 48.2 °F - 42.8 °F 82% 30.17 in 10.0 mi NNE 5.8 mph - N/A   Overcast
5:15 PM 48.2 °F - 41.0 °F 76% 30.18 in 6.0 mi North 6.9 mph - N/A   Overcast
5:35 PM 46.4 °F 42.9 °F 41.0 °F 81% 30.18 in 4.0 mi NE 6.9 mph - N/A   Overcast
6:15 PM 44.6 °F 43.1 °F 42.8 °F 93% 30.19 in 4.0 mi North 3.5 mph - 0.02 in   Overcast
6:35 PM 44.6 °F - 42.8 °F 93% 30.21 in 7.0 mi Calm Calm - 0.03 in   Overcast
7:15 PM 44.6 °F - 42.8 °F 93% 30.21 in 5.0 mi Calm Calm - N/A   Overcast
7:35 PM 44.6 °F 42.2 °F 41.0 °F 87% 30.22 in 4.0 mi North 4.6 mph - N/A   Overcast
8:15 PM 44.6 °F 41.4 °F 41.0 °F 87% 30.21 in 8.0 mi NNE 5.8 mph - N/A   Overcast
8:35 PM 44.6 °F - 41.0 °F 87% 30.22 in 8.0 mi Calm Calm - N/A   Overcast
8:55 PM 44.6 °F 43.1 °F 42.8 °F 93% 30.22 in 7.0 mi North 3.5 mph - N/A   Overcast
9:15 PM 44.6 °F 41.4 °F 41.0 °F 87% 30.23 in 8.0 mi North 5.8 mph - N/A   Overcast
9:35 PM 44.6 °F 41.4 °F 39.2 °F 81% 30.23 in 9.0 mi NNE 5.8 mph - N/A   Overcast
9:55 PM 44.6 °F 41.4 °F 39.2 °F 81% 30.22 in 10.0 mi NE 5.8 mph - N/A   Overcast
10:15 PM 44.6 °F 43.1 °F 39.2 °F 81% 30.23 in 10.0 mi NNE 3.5 mph - N/A   Overcast
10:35 PM 44.6 °F 42.2 °F 39.2 °F 81% 30.23 in 8.0 mi NE 4.6 mph - N/A   Overcast
10:55 PM 44.6 °F 43.1 °F 39.2 °F 81% 30.22 in 9.0 mi NE 3.5 mph - N/A   Overcast
11:15 PM 44.6 °F 42.2 °F 39.2 °F 81% 30.22 in 10.0 mi North 4.6 mph - N/A   Overcast
11:35 PM 44.6 °F 41.4 °F 39.2 °F 81% 30.23 in 10.0 mi North 5.8 mph - N/A   Overcast
11:55 PM 44.6 °F 41.4 °F 39.2 °F 81% 30.23 in 10.0 mi NNE 5.8 mph - N/A   Overcast